OK2DDS-5 Weather Reports


time (UTC)temp
C
wind
direction
speed
KPH
gust
KPH
rain 1hr
cm
rain 24hr
cm
rain mn
cm
humidity
%
barometer
mb
20260505041628 13 0 0.0 53.1 0.00 0.00 0.00 1002.0
20260505040128 13 0 0.0 19.3 0.00 0.00 0.00 1002.0
20260505034628 13 0 0.0 19.3 0.00 0.00 0.00 1002.0
20260505033128 14 0 0.0 24.1 0.00 0.00 0.00 1002.0
20260505031628 14 0 0.0 33.8 0.00 0.00 0.00 1002.0
20260505030128 14 0 0.0 33.8 0.00 0.00 0.00 1002.0
20260505024628 15 0 0.0 24.1 0.00 0.00 0.00 1002.0
20260505023128 15 0 0.0 38.6 0.00 0.00 0.00 1002.0
20260505021628 15 0 0.0 32.2 0.00 0.00 0.00 1003.0
20260505020128 15 0 0.0 11.3 0.00 0.00 0.00 1003.0
20260505014628 15 0 0.0 17.7 0.00 0.00 0.00 1003.0
20260505013128 15 0 0.0 32.2 0.00 0.00 0.00 1003.0
20260505011628 15 0 0.0 24.1 0.00 0.00 0.00 1003.0
20260505010128 16 0 0.0 14.5 0.00 0.00 0.00 1003.0
20260505004628 16 0 0.0 22.5 0.00 0.00 0.00 1003.0
20260505003128 16 0 0.0 30.6 0.00 0.00 0.00 1003.0
20260505001628 16 0 0.0 45.1 0.00 0.00 0.00 1003.0
20260505000128 16 0 0.0 29.0 0.00 0.00 0.00 1003.0
20260504234628 16 0 0.0 14.5 0.00 0.00 0.00 1004.0
20260504233128 16 0 0.0 37.0 0.00 0.00 0.00 1004.0
20260504231628 16 0 0.0 19.3 0.00 0.00 0.00 1004.0
20260504230128 17 0 0.0 35.4 0.00 0.00 0.00 1004.0
20260504224628 17 0 0.0 38.6 0.00 0.00 0.00 1004.0
20260504223128 17 0 0.0 66.0 0.00 0.00 0.00 1004.0
20260504221628 17 0 0.0 20.9 0.00 0.00 0.00 1004.0
20260504220128 18 0 0.0 19.3 0.00 0.00 0.00 1004.0
20260504214628 18 0 0.0 24.1 0.00 0.00 0.00 1004.0
20260504213128 18 0 0.0 37.0 0.00 0.00 0.00 1004.0
20260504211628 18 0 0.0 24.1 0.00 0.00 0.00 1004.0
20260504210128 18 0 0.0 16.1 0.00 0.00 0.00 1004.0
20260504204628 18 0 0.0 19.3 0.00 0.00 0.00 1005.0
20260504203128 19 0 0.0 9.7 0.00 0.00 0.00 1005.0
20260504201628 19 0 0.0 59.5 0.00 0.00 0.00 1005.0
20260504200128 20 0 0.0 30.6 0.00 0.00 0.00 1005.0
20260504194628 20 0 0.0 14.5 0.00 0.00 0.00 1005.0
20260504193128 20 0 0.0 49.9 0.00 0.00 0.00 1004.0
20260504191628 21 0 0.0 33.8 0.00 0.00 0.00 1004.0
20260504190128 21 0 0.0 11.3 0.00 0.00 0.00 1004.0
20260504184628 22 0 0.0 32.2 0.00 0.00 0.00 1004.0
20260504183128 22 0 0.0 29.0 0.00 0.00 0.00 1004.0
20260504181628 23 0 0.0 12.9 0.00 0.00 0.00 1004.0
20260504180128 23 0 0.0 9.7 0.00 0.00 0.00 1004.0
20260504174628 25 0 0.0 14.5 0.00 0.00 0.00 1004.0
20260504173128 26 0 0.0 11.3 0.00 0.00 0.00 1004.0
20260504171628 26 0 0.0 11.3 0.00 0.00 0.00 1004.0
20260504170128 26 0 0.0 9.7 0.00 0.00 0.00 1004.0
20260504160128 31 0 0.0 19.3 0.00 0.00 0.00 1004.0
20260504150128 33 0 0.0 11.3 0.00 0.00 0.00 1004.0
20260504140128 31 0 1.6 14.5 0.00 0.00 0.00 1005.0
20260504130128 33 0 1.6 11.3 0.00 0.00 0.00 1005.0
20260504120128 31 0 1.6 16.1 0.00 0.00 0.00 1006.0
20260504110128 28 0 1.6 19.3 0.00 0.00 0.00 1006.0
20260504100128 27 0 1.6 17.7 0.00 0.00 0.00 1007.0
20260504090128 23 0 0.0 19.3 0.00 0.00 0.00 1007.0
20260504081629 22 0 1.6 30.6 0.00 0.00 0.00 1007.0
20260504080128 21 0 1.6 37.0 0.00 0.00 0.00 1007.0
20260504070128 18 0 1.6 22.5 0.00 0.00 0.00 1007.0
20260504060128 16 0 0.0 20.9 0.00 0.00 0.00 1007.0
20260504050128 14 0 0.0 45.1 0.00 0.00 0.00 1007.0